Regional Weather Roundup
Issued by NWS

Home | Current Version | Previous Version | Text Only | Print | Product List | Glossary Off
Versions: 1 2 3 4 5 6 7 8 9 10 11 12 13 14 15 16 17 18 19 20 21 22 23 24 25 26 27 28 29 30 31 32 33 34 35 36 37 38 39 40 41 42 43 44 45 46 47 48 49 50

000
ASUS43 KMPX 061201
RWRMN
WEATHER ROUNDUP FOR MINNESOTA
NATIONAL WEATHER SERVICE TWIN CITIES/CHANHASSEN MN
700 AM CDT FRI MAY 06 2016


NOTE: "FAIR" INDICATES FEW OR NO CLOUDS BELOW 12,000 FEET WITH NO
SIGNIFICANT WEATHER AND/OR OBSTRUCTIONS TO VISIBILITY. N/A MEANS
CURRENT SKY AND/OR WEATHER CONDITIONS ARE NOT AVAILABLE.

MNZ060>063-068>070-061300-
   Twin Cities Metro

CITY           SKY/WX    TMP DP  RH WIND       PRES   REMARKS
BLAINE         SUNNY     64  43  45 SW8       29.86S
SOUTH ST PAUL  SUNNY     62  41  45 W8        29.87S
LAKE ELMO      FAIR      61  43  51 SW9       29.88S
$$
MNZ001>005-007-008-013>017-022>024-027-028-061300-
   Northwest Minnesota

CITY           SKY/WX    TMP DP  RH WIND       PRES   REMARKS
BEMIDJI        CLEAR     64  44  46 SW5       29.75S
HALLOCK        CLOUDY    59  45  58 S6        29.67R
ROSEAU         CLOUDY    66  48  52 SW14G20   29.64S
WARROAD        CLOUDY    64  50  59 SW9       29.65S
CROOKSTON      CLOUDY    59  45  58 S10       29.72R
FOSSTON        CLEAR     59  43  55 S9        29.75S
DETROIT LAKES  CLEAR     63  45  51 S7        29.80R
MOORHEAD       CLEAR     57  45  62 SE9       29.76F
MAHNOMEN       FAIR      59  43  55 S12       29.75S
$$
MNZ006-009>011-018-025>026-061300-
   North Central Minnesota

CITY           SKY/WX    TMP DP  RH WIND       PRES   REMARKS
FLAG ISLAND    MOSUNNY   61  45  55 SW12      29.61S
WASKISH        MOSUNNY   66  46  48 SW10      29.72S
BIG FORK       SUNNY     64  45  48 SW7       29.75S
LONGVILLE      MOCLDY    63  43  48 SW5       29.78F
CRANE LAKE     MOSUNNY   52  43  71 S3        29.72F
ORR            SUNNY     57  39  51 CALM      29.72S
COOK           SUNNY     63  43  48 SW7       29.75S
WALKER         FAIR      63  42  46 SW8       29.77S
$$
MNZ012-019>021-037-061300-
   Northeast Minnesota

CITY           SKY/WX    TMP DP  RH WIND       PRES   REMARKS
ELY            SUNNY     63  39  42 SW6       29.75S
EVELETH        SUNNY     54  43  66 W3        29.78S
DULUTH HARBOR  SUNNY     63  46  55 S17       29.77R
TWO HARBORS    MOSUNNY   70  48  46 W10G18    29.74S
SILVER BAY     PTSUNNY   70  39  32 W9G18     29.73R
GRAND MARAIS     N/A     43  38  82 CALM      29.75R
G MARAIS ARPRT MOSUNNY   64  37  36 W12G17    29.76S
$$
MNZ029>031-032-039>041-046>048-054>057-064-061300-
   West Central Minnesota

CITY           SKY/WX    TMP DP  RH WIND       PRES   REMARKS
FERGUS FALLS   CLEAR     59  45  58 SE7       29.77S
WHEATON        CLEAR     61  48  63 S3        29.79S
MORRIS         CLEAR     57  45  62 SE9       29.80F
ELBOW LAKE     FAIR      56  46  67 SE9       29.81S
WADENA         CLEAR     59  45  58 SW6       29.80S
GLENWOOD       CLEAR     54  45  71 S5        29.84F
APPLETON       CLEAR     57  45  62 SE3       29.81F
BENSON         CLEAR     54  41  62 S6        29.83S
ORTONVILLE     CLEAR     64  46  52 S6        29.79F
MADISON        PTCLDY    66  45  45 SW17      29.81F
WILLMAR        FAIR      54  45  71 SE5       29.86F
$$
MNZ033>034-036-042>043-049>051-058-059-061300-
   Central Minnesota

CITY           SKY/WX    TMP DP  RH WIND       PRES   REMARKS
SAUK CENTRE      N/A     56  42  60 CALM      29.84S
PAYNESVILLE    CLEAR     59  42  52 SW3       29.85F
AITKIN         SUNNY     63  41  45 CALM      29.79F
PINE RIVER     MOCLDY    63  45  51 CALM      29.83F
STAPLES        CLEAR     61  43  51 S5        29.81S
LONG PRAIRIE   FAIR      54  43  66 S5        29.84S
LITTLE FALLS   CLEAR     59  41  51 CALM      29.83F
LITCHFIELD     CLEAR     61  43  51 S3        29.87S
BUFFALO        CLEAR     59  43  54 CALM      29.87S
MAPLE LAKE     CLEAR     61  45  55 S5        29.87S
HUTCHINSON     CLOUDY    58  45  60 SW3       29.88S
$$
MNZ037-044-045-052-053-061300-
   East Central Minnesota

CITY           SKY/WX    TMP DP  RH WIND       PRES   REMARKS
PRINCETON      CLEAR     61  43  51 CALM      29.85S
MORA           SUNNY     59  41  51 W3        29.85S
CAMBRIDGE      MOSUNNY   63  45  51 CALM      29.83S
RUSH CITY      MOSUNNY   60  43  53 SW5       29.85R
MOOSE LAKE     MOSUNNY   63  41  45 W6        29.79S
HINCKLEY       CLOUDY    52  45  76 S3        29.83R
CLOQUET        SUNNY     64  39  39 W8        29.80S
MCGREGOR       SUNNY     55  43  62 S3        29.81S
$$
MNZ071>073-080-081-089-090-097-098-061300-
   Southwest Minnesota

CITY           SKY/WX    TMP DP  RH WIND       PRES   REMARKS
MONTEVIDEO     CLOUDY    59  45  58 SW6       29.84F
GRANITE FALLS  CLOUDY    62  46  56 S10       29.86F
CANBY          PTCLDY    67  48  50 SW16G22   29.84F
OLIVIA         CLOUDY    55  41  58 S7        29.85F
PIPESTONE      CLOUDY    55  45  67 S9        29.90F
WINDOM         CLEAR     59  43  55 SW9       29.92S
JACKSON        CLEAR     55  39  54 SW12      29.94S
TRACY          CLOUDY    63  45  52 SW20      29.88S
SLAYTON        CLEAR     57  42  57 SW15      29.91S
$$
MNZ065>067-074>077-082>085-091>093-061300-
   South Central Minnesota

CITY           SKY/WX    TMP DP  RH WIND       PRES   REMARKS
NEW ULM        CLEAR     57  43  58 SW9       29.89S
ST JAMES       CLEAR     50  39  66 S3        29.92S
GLENCOE        CLEAR     58  46  63 SW5       29.88S
FARIBAULT      CLEAR     55  43  62 S5        29.92R
OWATONNA       CLEAR     55  41  58 SW6       29.93R
WASECA         CLEAR     52  41  66 SW6       29.93S
ALBERT LEA     CLEAR     61  39  44 W8        29.93S
$$
MNZ078>079-086>088-094>096-061300-
   Southeast Minnesota

CITY           SKY/WX    TMP DP  RH WIND       PRES   REMARKS
RED WING       SUNNY     61  43  51 W6        29.88S
STANTON        SUNNY     59  42  53 S5        29.89S
DODGE CENTER   SUNNY     57  41  54 W9        29.93R
WINONA         SUNNY     48  43  81 CALM      29.91R
AUSTIN         CLEAR     57  41  54 W6        29.93S
PRESTON        SUNNY     57  40  51 W6        29.93R
$$
ABBREVIATIONS USED IN REMARKS
   TC - TEMPERATURES IN CELSIUS
  WCI - WIND CHILL INDEX
   HX - HEAT INDEX
  VSB - VISIBILITY
$$




USA.gov is the U.S. government's official web portal to all federal, state and local government web resources and services.